Location: Street
(51.1247°N, 2.7429°W)
Time: 05:32:00
(UTC+00:00)

SR - Pass Details

Date: 03 December 2020
Orbit: 576 x 880 km, 66.7° (Epoch: 16 January)

Event Time Altitude Azimuth Distance (km) Brightness Sun altitude
Rises 23:06:19 0° 318° (NW) 3,072 - -59.2°
Reaches altitude 10° 23:09:17 10° 338° (NNW) 2,215 - -59.4°
Maximum altitude 23:12:48 19° 22° (NNE) 1,770 - -59.6°
Drops below altitude 10° 23:16:31 10° 66° (ENE) 2,353 - -59.9°
Sets 23:19:47 0° 84° (E) 3,339 - -60.0°
